Caribou, ME

6:54 PM EDT on October 01, 2016 (GMT -0400)
Caribou Municipal

Weather History for KCAR - March, 2013

Change the Weather History Date:

Friday, March 22, 2013

  Actual Average Record
Temperature  
Mean Temperature 23 °F 27 °F  
Max Temperature 34 °F 36 °F 73 °F (2012)
Min Temperature 12 °F 18 °F -2 °F (1955)
Degree Days  
Heating Degree Days 42 38  
Month to date heating degree days 811 931  
Since 1 July heating degree days 6959 7652  
Cooling Degree Days 0 0  
Month to date cooling degree days 0 0  
Year to date cooling degree days 0 0  
Moisture  
Dew Point 19 °F    
Average Humidity 74    
Maximum Humidity 96    
Minimum Humidity 51    
Precipitation  
Precipitation 0.01 in 0.08 in 1.15 in (1942)
Month to date precipitation 1.54 1.78  
Year to date precipitation 6.91 6.70  
Snow  
Snow 0.10 in 0.50 in 15.50 in (1942)
Month to date snowfall 13.6 14.2  
Since 1 July snowfall 101.0 96.7  
Snow Depth 12.00 in    
Sea Level Pressure  
Sea Level Pressure 29.49 in    
Wind  
Wind Speed 9 mph (NW)    
Max Wind Speed 23 mph    
Max Gust Speed 28 mph    
Visibility 7 miles    
Events Snow    
T = Trace of Precipitation, MM = Missing Value Source: NWS Daily Summary

Daily Weather History Graph

Daily Weather History Graph

Search for Another Location

Airport or City:

Trip Planner

Search our weather history database for the weather conditions in past years. The results will help you decide how hot, cold, wet, or windy it might be!

Date:

Astronomy

Mar. 22, 2013 Rise Set
Actual Time 6:30 AM EDT 6:47 PM EDT
Civil Twilight 6:00 AM EDT 7:18 PM EDT
Nautical Twilight 5:24 AM EDT 7:54 PM EDT
Astronomical Twilight 4:47 AM EDT 8:31 PM EDT
Moon 1:56 PM EDT (3/22) 3:45 AM EDT (3/22)
Length of Visible Light 13h 17m
Length of Day
12h 17m
Waxing Gibbous, 77% of the Moon is Illuminated
Mar 22
Waxing Gibbous
Mar 27
Full
Apr 3
Last Quarter
Apr 10
New
Apr 18
First Quarter

Hourly Weather History & Observations

Time (EDT) Temp. Windchill Dew Point Humidity Pressure Visibility Wind Dir Wind Speed Gust Speed Precip Events Conditions
12:54 AM 17.1 °F 5.0 °F 14.0 °F 88% 29.63 in 10.0 mi NNW 10.4 mph - N/A   Clear
1:54 AM 18.0 °F 11.1 °F 15.1 °F 88% 29.62 in 10.0 mi North 4.6 mph - N/A   Clear
2:54 AM 15.1 °F 9.4 °F 12.0 °F 88% 29.60 in 10.0 mi North 3.5 mph - N/A   Clear
3:54 AM 14.0 °F 2.0 °F 12.0 °F 92% 29.59 in 10.0 mi NNW 9.2 mph - N/A   Clear
4:54 AM 14.0 °F 3.9 °F 10.9 °F 88% 29.60 in 10.0 mi NNW 6.9 mph - N/A   Mostly Cloudy
5:04 AM 14.0 °F 6.5 °F 10.4 °F 86% 29.56 in 10.0 mi North 4.6 mph - N/A   Mostly Cloudy
5:13 AM 14.0 °F 6.5 °F 10.4 °F 86% 29.56 in 10.0 mi North 4.6 mph - N/A   Overcast
5:26 AM 15.8 °F 7.2 °F 12.2 °F 86% 29.56 in 10.0 mi North 5.8 mph - N/A   Overcast
5:54 AM 17.1 °F 11.7 °F 15.1 °F 92% 29.60 in 10.0 mi North 3.5 mph - N/A   Overcast
6:54 AM 16.0 °F 7.4 °F 14.0 °F 92% 29.60 in 10.0 mi NW 5.8 mph - N/A   Overcast
7:13 AM 15.8 °F 8.6 °F 12.2 °F 86% 29.55 in 10.0 mi West 4.6 mph - N/A   Scattered Clouds
7:54 AM 14.0 °F 8.2 °F 10.9 °F 88% 29.58 in 10.0 mi WNW 3.5 mph - N/A   Clear
8:54 AM 19.9 °F 12.1 °F 17.1 °F 89% 29.57 in 10.0 mi NW 5.8 mph - N/A   Clear
9:54 AM 25.0 °F 19.3 °F 19.9 °F 81% 29.57 in 10.0 mi North 4.6 mph - N/A   Clear
10:54 AM 28.9 °F 20.4 °F 21.0 °F 72% 29.55 in 10.0 mi NNW 9.2 mph - N/A   Clear
11:54 AM 30.9 °F 21.7 °F 21.0 °F 67% 29.53 in 10.0 mi NW 11.5 mph - N/A   Scattered Clouds
12:32 PM 30.2 °F 18.9 °F 19.4 °F 64% 29.48 in 10.0 mi NNW 16.1 mph 19.6 mph N/A   Mostly Cloudy
12:42 PM 32.0 °F 23.6 °F 21.2 °F 64% 29.48 in 10.0 mi NW 10.4 mph - N/A   Scattered Clouds
12:54 PM 32.0 °F 23.0 °F 19.9 °F 61% 29.51 in 10.0 mi NNW 11.5 mph - N/A   Scattered Clouds
1:54 PM 33.1 °F 24.9 °F 19.0 °F 56% 29.48 in 10.0 mi WNW 10.4 mph 18.4 mph N/A   Overcast
2:54 PM 32.0 °F 22.1 °F 18.0 °F 56% 29.48 in 10.0 mi NW 13.8 mph 25.3 mph N/A   Mostly Cloudy
3:54 PM 33.1 °F 23.0 °F 19.0 °F 56% 29.46 in 10.0 mi NW 15.0 mph 19.6 mph N/A   Scattered Clouds
4:54 PM 34.0 °F 25.0 °F 18.0 °F 52% 29.45 in 10.0 mi NW 12.7 mph 21.9 mph N/A   Overcast
5:09 PM 30.2 °F 18.9 °F 23.0 °F 75% 29.42 in 1.5 mi NNW 16.1 mph 21.9 mph 0.00 in Snow Light Snow
5:16 PM 30.2 °F 20.8 °F 23.0 °F 75% 29.42 in 1.2 mi NNW 11.5 mph 21.9 mph 0.00 in Snow Light Snow
5:19 PM 30.2 °F 19.3 °F 23.0 °F 75% 29.42 in 2.5 mi NNW 15.0 mph 19.6 mph 0.00 in Snow Light Snow
5:21 PM 30.2 °F 18.5 °F 23.0 °F 75% 29.42 in 2.5 mi NNW 17.3 mph 23.0 mph 0.00 in Snow Light Snow
5:23 PM 30.2 °F 18.5 °F 23.0 °F 75% 29.42 in 1.2 mi NNW 17.3 mph 23.0 mph 0.00 in Snow Light Snow
5:33 PM 30.2 °F 18.9 °F 21.2 °F 69% 29.42 in 2.0 mi NW 16.1 mph - 0.00 in Snow Light Snow
5:40 PM 30.2 °F 20.2 °F 21.2 °F 69% 29.42 in 9.0 mi NW 12.7 mph - 0.00 in   Scattered Clouds
5:54 PM 30.9 °F 21.7 °F 18.0 °F 59% 29.45 in 10.0 mi NW 11.5 mph 20.7 mph 0.00 in   Clear
6:54 PM 30.0 °F 21.1 °F 18.0 °F 61% 29.46 in 10.0 mi NW 10.4 mph - N/A   Mostly Cloudy
7:49 PM 28.4 °F 17.5 °F 21.2 °F 74% 29.43 in 2.5 mi NW 13.8 mph 21.9 mph 0.00 in Snow Light Snow
7:54 PM 28.0 °F 18.1 °F 21.0 °F 75% 29.47 in 2.0 mi NW 11.5 mph 20.7 mph 0.00 in Snow Light Snow
7:57 PM 28.4 °F 19.1 °F 21.2 °F 74% 29.43 in 3.0 mi NW 10.4 mph 18.4 mph 0.00 in Snow Light Snow
8:19 PM 28.4 °F 18.5 °F 21.2 °F 74% 29.43 in 1.8 mi WNW 11.5 mph - 0.00 in Snow Light Snow
8:21 PM 28.4 °F 19.1 °F 21.2 °F 74% 29.43 in 1.2 mi WNW 10.4 mph - 0.00 in Snow Light Snow
8:32 PM 26.6 °F 17.5 °F 24.8 °F 93% 29.42 in 0.8 mi WNW 9.2 mph - 0.00 in Snow Light Snow
8:37 PM 26.6 °F 19.1 °F 24.8 °F 93% 29.42 in 1.0 mi WNW 6.9 mph - 0.00 in Snow Light Snow
8:46 PM 26.6 °F 20.0 °F 24.8 °F 93% 29.42 in 2.0 mi WNW 5.8 mph - 0.00 in Snow Light Snow
8:54 PM 27.0 °F 21.6 °F 24.1 °F 89% 29.46 in 1.2 mi West 4.6 mph - 0.01 in Snow Light Snow
9:02 PM 26.6 °F 17.5 °F 24.8 °F 93% 29.41 in 0.8 mi West 9.2 mph - 0.00 in Snow Light Snow
9:11 PM 26.6 °F 18.2 °F 24.8 °F 93% 29.41 in 1.2 mi West 8.1 mph - 0.00 in Snow Light Snow
9:13 PM 26.6 °F 17.5 °F 24.8 °F 93% 29.41 in 2.0 mi West 9.2 mph - 0.00 in Snow Light Snow
9:21 PM 26.6 °F 19.1 °F 23.0 °F 86% 29.40 in 6.0 mi West 6.9 mph - 0.00 in   Overcast
9:54 PM 27.0 °F 17.3 °F 21.9 °F 81% 29.42 in 10.0 mi WSW 10.4 mph - 0.00 in   Overcast
10:54 PM 28.0 °F 16.5 °F 21.0 °F 75% 29.38 in 9.0 mi West 15.0 mph 23.0 mph 0.00 in   Overcast
11:54 PM 28.0 °F 17.0 °F 21.0 °F 75% 29.35 in 7.0 mi West 13.8 mph - 0.00 in Snow Light Snow